Weather History for Tekamah, NE

Change the Weather History Date:

Saturday, November 2, 2013

  Actual Average Record
Temperature  
Mean Temperature 47 °F -  
Max Temperature 61 °F 52 °F 82 °F (2005)
Min Temperature 34 °F 34 °F 8 °F (1951)
Degree Days  
Heating Degree Days 18    
Moisture  
Dew Point 32 °F    
Average Humidity 65    
Maximum Humidity 85    
Minimum Humidity 30    
Precipitation  
Precipitation 0.00 in - - ()
Sea Level Pressure  
Sea Level Pressure 30.10 in    
Wind  
Wind Speed 9 mph (West)    
Max Wind Speed 14 mph    
Max Gust Speed 22 mph    
Visibility 10 miles    
Events      
Averages and records for this station are not official NWS values.
T = Trace of Precipitation, MM = Missing Value Source: NWS Daily Summary

Daily Weather History Graph

Daily Weather History Graph

Search for Another Location

Airport:

Trip Planner

Search our weather history database for the weather conditions in past years. The results will help you decide how hot, cold, wet, or windy it might be!

Date:

Astronomy

Nov. 02, 2013 Rise Set
Actual Time 7:58 AM CDT 6:17 PM CDT
Civil Twilight 7:29 AM CDT 6:46 PM CDT
Nautical Twilight 6:56 AM CDT 7:19 PM CDT
Astronomical Twilight 6:24 AM CDT 7:51 PM CDT
Moon 6:56 AM CDT (11/2) 5:49 PM CDT (11/2)
Length of Visible Light 11h 17m
Length of Day
10h 19m
Waning Crescent, 1% of the Moon is Illuminated
Nov 2
Waning Crescent
Nov 3
New
Nov 9
First Quarter
Nov 17
Full
Nov 25
Last Quarter

Hourly Weather History & Observations

Time (CDT) Temp. Windchill Dew Point Humidity Pressure Visibility Wind Dir Wind Speed Gust Speed Precip Events Conditions
12:54 AM 46.0 °F 39.9 °F 37.0 °F 71% 29.99 in 10.0 mi NW 13.8 mph 21.9 mph N/A   Overcast
1:54 AM 44.1 °F 37.7 °F 36.0 °F 73% 30.01 in 10.0 mi NW 12.7 mph - N/A   Overcast
2:54 AM 42.1 °F 37.1 °F 35.1 °F 76% 30.04 in 10.0 mi NW 8.1 mph - N/A   Clear
3:54 AM 41.0 °F 35.2 °F 34.0 °F 76% 30.05 in 10.0 mi NW 9.2 mph - N/A   Clear
4:54 AM 39.9 °F 35.1 °F 34.0 °F 79% 30.08 in 10.0 mi WNW 6.9 mph - N/A   Clear
5:54 AM 37.9 °F 29.6 °F 33.1 °F 83% 30.10 in 10.0 mi WNW 13.8 mph 18.4 mph N/A   Clear
6:54 AM 37.9 °F 30.5 °F 32.0 °F 79% 30.13 in 10.0 mi WNW 11.5 mph 17.3 mph N/A   Clear
7:54 AM 37.0 °F 29.8 °F 30.9 °F 79% 30.14 in 10.0 mi NW 10.4 mph - N/A   Clear
8:54 AM 39.0 °F 35.7 °F 32.0 °F 76% 30.16 in 10.0 mi NW 4.6 mph - N/A   Clear
9:54 AM 44.1 °F 40.1 °F 33.1 °F 65% 30.18 in 10.0 mi WNW 6.9 mph - N/A   Clear
10:54 AM 46.9 °F - 34.0 °F 61% 30.17 in 10.0 mi WNW 5.8 mph - N/A   Clear
11:54 AM 52.0 °F - 34.0 °F 50% 30.18 in 10.0 mi WNW 5.8 mph - N/A   Clear
12:54 PM 54.0 °F - 33.1 °F 45% 30.17 in 10.0 mi West 6.9 mph - N/A   Clear
1:54 PM 57.0 °F - 33.1 °F 40% 30.14 in 10.0 mi West 9.2 mph - N/A   Clear
2:54 PM 59.0 °F - 30.9 °F 35% 30.12 in 10.0 mi WSW 5.8 mph - N/A   Clear
3:54 PM 60.1 °F - 28.0 °F 30% 30.10 in 10.0 mi Variable 4.6 mph - N/A   Clear
4:54 PM 60.1 °F - 28.0 °F 30% 30.09 in 10.0 mi WNW 5.8 mph - N/A   Clear
5:54 PM 53.1 °F - 32.0 °F 45% 30.09 in 10.0 mi Calm Calm - N/A   Clear
6:54 PM 46.0 °F 42.5 °F 32.0 °F 58% 30.09 in 10.0 mi South 6.9 mph - N/A   Clear
7:54 PM 39.9 °F 35.1 °F 32.0 °F 73% 30.10 in 10.0 mi South 6.9 mph - N/A   Clear
8:54 PM 37.0 °F 32.4 °F 30.9 °F 79% 30.09 in 10.0 mi South 5.8 mph - N/A   Clear
9:54 PM 34.0 °F 31.0 °F 30.0 °F 85% 30.09 in 10.0 mi SSE 3.5 mph - N/A   Clear
10:54 PM 36.0 °F 31.1 °F 30.9 °F 82% 30.08 in 10.0 mi SSE 5.8 mph - N/A   Clear
11:54 PM 35.1 °F 32.2 °F 30.0 °F 82% 30.07 in 10.0 mi SSE 3.5 mph - N/A   Clear